Location: Newark
(40.7060°N, 73.9980°W)
Time: 07:27:30
(UTC+00:00)

N. Korean satellite - Pass Details

Date: 17 November 2019
Orbit: 455 x 507 km, 97.2° (Epoch: 14 December)

Event Time Altitude Azimuth Distance (km) Brightness Sun altitude
Rises 10:09:05 0° 24° (NNE) 2,615 10.5 -18.1°
Reaches altitude 10° 10:11:27 10° 37° (NE) 1,721 9.7 -17.7°
Maximum altitude 10:14:36 26° 95° (E) 1,017 9.0 -17.1°
Drops below altitude 10° 10:17:42 10° 154° (SSE) 1,691 9.8 -16.5°
Sets 10:19:59 0° 167° (SSE) 2,560 10.6 -16.1°
